Hourly Data Report for October 21, 2015

All times are specified in Local Standard Time (LST). Add 1 hour to adjust for Daylight Saving Time where and when it is observed.

ARVIAT A
NUNAVUT

61°05'38.000" N
94°04'18.000" W
10.40 m
2300427
71174
YEK

Download Data

Hourly Data (October 2015)
Hourly Data Report for October 21, 2015
Temp Definition
°C
Dew Point Temp Definition
°C
Rel Hum Definition
%
Wind Dir Definition
10's deg

Wind Spd Definition
km/h
Visibility Definition
km
Stn Press Definition
kPa
Hmdx Definition


Wind Chill Definition


Weather Definition


TIME
00:00 Legend Double Dagger -8.7 -10.5 87 32 5 16.1 102.25   -11 LegendNANA
01:00 Legend Double Dagger -8.6 -9.8 91   0 16.1 102.22     LegendNANA
02:00 Legend Double Dagger -7.9 -9.1 91 29 8 16.1 102.21   -12 LegendNANA
03:00 Legend Double Dagger -7.2 -8.3 92   0 16.1 102.18     LegendNANA
04:00 Legend Double Dagger -6.2 -7.0 94 4 5 16.1 102.13   -9 LegendNANA
05:00 Legend Double Dagger -5.8 -7.4 89 24 11 16.1 102.13   -11 LegendNANA
06:00 Legend Double Dagger -6.6 -7.9 91   0 16.1 102.12     LegendNANA
07:00 Legend Double Dagger -6.8 -7.9 92   0 16.1 102.11     LegendNANA
08:00 Legend Double Dagger -6.7 -8.3 88   0 16.1 102.10     LegendNANA
09:00 Legend Double Dagger -6.2 -7.4 91 2 8 16.1 102.11   -10 LegendNANA
10:00 Legend Double Dagger -4.4 -5.7 91 5 5 16.1 102.11   -7 LegendNANA
11:00 Legend Double Dagger -3.2 -5.4 85 20 5 16.1 102.11   -5 LegendNANA
12:00 Legend Double Dagger -2.4 -4.9 83 22 8 16.1 102.10   -6 LegendNANA
13:00 Legend Double Dagger -2.1 -4.8 82 25 4 16.1 102.10   -4 LegendNANA
14:00 Legend Double Dagger -2.4 -4.7 84 22 4 16.1 102.10   -4 LegendNANA
15:00 Legend Double Dagger -2.0 -4.7 82 25 4 16.1 102.12   -3 LegendNANA
16:00 Legend Double Dagger -2.5 -5.1 83 35 4 16.1 102.13   -4 LegendNANA
17:00 Legend Double Dagger -2.1 -4.1 86 3 5 16.1 102.12   -4 LegendNANA
18:00 Legend Double Dagger -2.4 -3.4 93 9 9 16.1 102.12   -6 LegendNANA
19:00 Legend Double Dagger -2.3 -3.1 94 9 11 16.1 102.13   -6 LegendNANA
20:00 Legend Double Dagger -2.2 -2.9 95 10 8 16.1 102.13   -5 LegendNANA
21:00 Legend Double Dagger -2.3 -2.9 96 11 11 16.1 102.10   -6 LegendNANA
22:00 Legend Double Dagger -1.3 -3.0 88 12 4 16.1 102.10   -3 LegendNANA
23:00 Legend Double Dagger -1.0 -2.7 88 21 5 16.1 102.11   -3 LegendNANA

Notes on Data Quality.

Legend

  • E = Estimated
  • M = Missing
  • NA = Not Available
  • ‡ = Partner data that is not subject to review by the National Climate Archives
Date modified: